DECAYED

PEGASUS DEB, 39311 (Decayed)

Orbit data source: Space-Track

PEGASUS DEB, 39311 was space debris in LEO originally from a launch on Thu, 19 May 1994 UTC launched from the Air Force Western Test Range (AFWTR). Debris objects in space refer to the collection of defunct objects orbiting the Earth. Examples of debris include non-operational satellites, rocket bodies, and fragments generated from explosions, collisions, or faulty payload assembly.

Not visible in the next 10 days
Identifier
39311, 1994-029AEW
Orbit
Decayed
Country
Flag of USUS
Related business
Manufacturer
Unknown
Mission
Decayed spacecraft
Bus & Motor
Unknown
Mass
Unknown
Launch date (UTC)
1994-05-19 (32 years ago)
Launch vehicle
Unknown
Launch site
Air Force Western Test Range (AFWTR)
Object type
Payload
Rocket body
Debris
Shape & HBR
Unknown shape, 0.1 m
Radar Cross Section
Small (<0.1 m²)

Expand to show TLE details & history
Last TLE update: 6 months ago

TLE from 6 months ago
0 PEGASUS DEB
1 39311U 94029AEW 25334.41350297  .00534154  00000-0  63856-2 0  9991
2 39311  81.3931 328.8954 0032751  66.0200 294.4476 15.58674285662433
Epoch: 2025-11-30T09:55Z
TLE epoch observation values (Epoch: 2025-11-30T09:55:26.656Z)
Latitude
0.00003°
Longitude
110.50663°
Altitude
385.48 km
Speed
7.684 km/s
True Right ascension
21h 55m 34s
True Declination
0° 00' 00"
Sunlit
Object was in daylight at epoch
Visualization orbit readout
Latitude
Unknown
Longitude
Unknown
Altitude
Unknown
Speed
Unknown
Apparent Right ascension
Unknown
Apparent Declination
Unknown
Sunlit
N/A
Visualization observer readout
Local Sidereal Time
20:51:25
Azimuth
Unknown
Elevation
Unknown
Doppler factor
Unknown
Orbital elements
Apogee altitude
410.625 km
Perigee altitude
366.302 km
Semi-major axis
6,766.601 km
Eccentricity
0.00328
Inclination
81.3931°
RAAN
328.8954°
Arg. of periapsis
66.02°
True anomaly
294.10537°
Mean anomaly
294.4476°
Eccentric anomaly
294.27654°
Mean motion
3.89931 °/min
Orbital period
92.32 mins
BSTAR
0.0063856
Loading maneuver chart data...
Computing Atmospheric mass density...

Documentation

Showing up to 5 results
|